Theta_e
338 338 338 337 335 336 339 342 343 343 343 343 343 343 343 343 343 343 342 342 341 340 339 338 337 335 335 334 334 334 333 333 332 332 332 331 332 332 331 331 331 331 331 331 331 332 332 332 333 333 334 334 334 335 337 337 337 338 338 338 339 339 338 338 339 339 338 337 334 331 327 320 318 319 318 318 317 316 318 319 321 322 322 322 322
337 337 337 338 337 337 339 341 343 344 344 344 344 343 343 343 343 343 343 343 343 341 340 340 339 337 337 336 335 335 335 335 335 335 335 335 335 335 334 333 333 334 334 334 334 335 335 335 336 335 336 337 337 338 339 339 339 339 338 339 339 339 339 339 339 339 338 336 330 325 321 319 319 319 318 318 317 318 320 321 322 322 323 323 323
336 337 338 339 339 339 340 342 343 344 345 344 344 343 343 343 343 344 344 344 344 344 343 342 341 339 337 336 336 336 336 336 336 336 336 336 336 337 337 336 336 337 337 337 337 338 338 339 339 338 339 339 339 340 340 340 340 338 338 339 339 338 338 338 338 337 336 332 325 320 319 319 319 319 319 318 318 319 321 323 323 323 323 323 323
337 338 339 339 340 340 341 342 343 344 344 344 344 344 344 344 343 343 343 343 343 344 344 344 343 342 341 340 340 340 340 339 339 339 339 339 338 337 338 338 337 337 336 337 337 338 338 339 339 339 339 339 339 340 340 339 339 338 338 339 338 337 337 337 337 335 332 326 321 319 319 320 320 320 320 319 320 321 322 323 323 324 324 324 324
337 339 339 340 340 341 341 341 342 343 343 344 344 344 344 343 343 343 343 343 343 343 344 344 344 343 343 342 341 341 341 340 340 340 341 341 340 339 338 337 337 336 335 335 336 337 337 338 338 338 338 339 339 339 338 338 339 339 338 338 337 336 336 336 334 329 324 321 320 320 320 321 321 321 321 322 322 322 323 324 324 324 324 324 324
337 339 340 340 340 341 341 341 342 343 344 344 345 345 344 343 342 342 343 343 343 343 343 344 344 343 343 342 341 341 340 340 340 340 340 339 339 340 340 339 337 336 335 335 334 335 335 334 335 336 337 337 337 338 337 337 338 337 336 334 332 331 330 328 325 321 320 320 321 321 322 322 322 322 323 323 323 323 324 324 324 325 325 325 325
337 339 340 342 342 342 342 343 343 344 344 345 345 345 345 344 343 342 343 343 342 342 343 344 345 344 343 342 340 341 341 341 341 341 340 339 338 339 341 341 339 337 337 336 335 335 334 333 333 334 333 333 333 333 335 334 333 332 331 328 324 323 322 321 320 320 321 321 322 323 323 323 323 324 324 324 324 324 324 325 325 325 324 325 325
340 339 341 343 344 343 343 344 345 345 345 345 345 345 345 344 343 342 343 343 342 342 343 343 344 344 343 342 341 341 341 342 342 342 342 341 340 339 339 339 339 338 337 336 335 335 335 335 335 334 333 332 331 330 330 329 327 326 324 322 321 321 321 321 321 321 322 322 323 323 323 323 323 324 324 324 324 324 324 324 324 324 324 324 324
343 342 343 344 345 345 345 345 346 346 345 345 345 344 344 344 344 342 342 343 343 343 343 342 343 344 344 342 341 341 342 342 342 343 342 342 342 341 340 339 338 338 337 335 332 330 332 333 333 333 333 332 330 328 326 325 324 323 322 321 322 322 322 322 322 322 322 323 323 323 323 323 323 324 323 323 324 323 324 324 324 324 323 323 323
345 344 345 345 345 345 346 346 346 345 345 344 344 344 344 344 343 342 342 343 344 343 343 342 342 342 343 342 341 341 342 342 341 342 342 343 342 342 342 341 340 338 338 337 334 330 328 328 329 329 330 331 328 326 325 323 323 323 323 323 323 324 324 324 323 323 323 323 324 324 324 324 324 324 324 324 324 324 324 324 324 324 324 324 324
345 345 345 346 345 345 345 345 345 345 344 343 343 343 343 343 343 342 342 343 344 344 343 342 342 342 342 341 341 341 341 341 341 341 341 342 342 341 341 342 341 340 339 339 338 334 330 327 327 327 327 327 327 326 324 324 324 324 324 325 325 325 325 325 325 325 325 325 325 325 325 325 325 325 325 325 325 325 325 325 325 325 325 324 324
345 344 345 346 345 345 344 344 344 344 344 343 343 342 341 343 343 343 343 343 344 344 343 342 342 341 341 341 341 342 341 340 340 341 341 341 341 341 341 341 341 340 340 340 340 337 333 329 328 327 327 326 326 325 325 325 325 325 326 326 326 326 326 326 326 326 326 326 326 326 326 326 326 326 326 326 326 326 326 326 326 326 326 325 326
345 344 344 345 345 344 344 343 343 343 343 343 342 342 341 341 342 343 343 344 344 344 344 343 342 342 342 341 340 340 340 339 340 340 340 341 341 341 341 341 341 341 340 340 340 338 335 333 332 329 328 327 326 326 326 326 326 327 327 327 327 327 327 327 327 327 326 326 326 326 326 326 327 327 327 328 328 329 329 329 328 328 328 328 328
344 344 344 344 344 344 344 343 343 343 343 343 343 342 342 341 341 342 343 344 345 346 344 343 343 343 343 343 341 339 339 339 340 340 340 340 340 340 341 341 341 341 341 341 341 340 338 337 335 333 331 330 328 327 327 327 327 327 327 327 327 327 327 327 327 327 327 327 327 327 328 328 329 330 331 332 333 333 334 334 334 333 333 333 333
343 344 344 344 344 344 344 344 343 344 344 343 343 343 343 341 341 343 343 344 346 345 344 343 343 342 343 344 342 340 340 339 339 340 340 340 340 340 341 340 341 341 341 341 342 342 341 339 337 336 336 333 331 329 328 328 328 327 327 327 327 327 327 328 327 328 328 328 329 330 330 331 332 334 336 338 339 339 340 340 340 340 340 340 340
343 343 344 344 344 344 344 344 344 345 344 344 344 343 343 342 342 344 345 347 348 345 343 342 342 342 343 343 342 341 343 341 340 340 340 341 340 340 341 340 340 340 341 341 341 342 342 341 341 340 339 336 333 330 328 328 328 328 328 328 328 328 328 329 329 330 330 332 333 333 335 336 337 339 340 342 343 344 345 346 346 346 346 346 346
342 343 344 344 344 344 343 344 345 345 345 345 345 343 343 343 343 344 345 348 349 346 343 343 342 343 343 343 343 344 345 343 342 341 340 341 341 340 340 340 340 340 341 341 341 342 342 342 342 341 340 337 334 332 330 330 329 329 329 329 329 329 330 330 332 333 335 336 338 340 341 342 343 344 345 346 347 348 348 348 348 349 349 349 349
342 343 344 345 344 343 343 344 344 345 345 345 344 344 345 343 342 343 344 346 347 345 345 344 343 343 343 343 343 345 345 344 344 343 340 340 341 340 340 340 340 340 339 340 340 341 341 341 341 341 340 338 336 334 332 331 330 330 330 330 331 332 333 335 336 338 340 341 343 344 345 346 347 347 348 348 348 349 349 349 349 349 350 350 350
341 342 343 344 344 343 343 344 344 344 344 343 343 345 345 344 343 342 343 345 346 345 346 345 344 345 344 343 342 343 344 344 345 344 342 341 340 341 341 340 340 339 338 339 339 340 340 340 340 340 339 338 336 335 334 333 332 332 332 333 334 335 338 340 341 342 343 344 345 346 347 347 348 348 349 349 349 350 350 350 350 350 350 350 350
341 340 341 343 344 344 344 344 344 344 344 343 343 344 345 344 344 343 343 345 346 346 346 345 345 346 345 343 342 343 344 343 343 343 344 343 342 341 341 341 342 340 338 338 339 339 339 339 339 339 338 337 336 336 335 335 335 335 335 336 338 340 342 343 343 344 344 344 344 345 346 347 348 348 349 349 349 349 349 349 350 350 350 350 351
342 341 341 342 343 344 344 344 344 344 344 344 344 344 345 345 344 344 345 345 346 345 345 344 345 346 344 342 342 343 343 343 342 342 343 344 343 343 341 341 343 342 339 338 339 340 340 340 339 339 338 338 338 338 338 338 338 338 338 338 340 341 341 342 342 342 342 342 343 344 345 346 346 347 347 348 348 348 348 349 350 350 350 350 351
342 341 341 342 343 344 344 345 345 344 343 345 345 344 345 345 345 345 345 346 346 345 344 344 344 345 343 342 343 343 344 344 343 343 343 343 344 344 343 343 343 342 341 339 339 340 340 340 340 340 340 340 340 340 340 340 340 340 340 341 341 341 340 339 338 338 338 339 341 342 344 344 345 345 346 346 346 347 348 349 349 349 350 350 351
343 342 341 341 343 344 344 344 344 344 344 344 345 345 345 345 345 345 345 345 345 345 345 344 344 344 343 343 343 344 345 345 344 343 343 345 345 344 344 343 342 342 341 340 339 339 339 340 340 340 340 340 341 341 340 340 340 340 340 341 340 339 337 336 334 334 335 336 339 341 342 343 343 344 345 346 347 348 348 348 349 349 350 351 352
343 343 342 342 342 343 343 343 344 344 344 344 345 346 345 345 345 345 344 344 345 345 345 346 345 343 343 343 343 344 345 344 344 343 343 344 344 345 346 342 341 342 340 339 340 339 339 340 340 340 341 341 341 341 340 340 340 340 340 338 337 335 333 332 332 333 334 337 339 341 342 343 344 345 346 347 347 347 347 348 348 349 350 351 351
341 341 341 341 342 342 342 342 343 343 343 344 345 346 346 345 345 345 345 345 345 345 345 346 346 344 343 342 342 344 345 344 344 344 344 342 344 347 346 342 342 343 340 339 339 339 339 340 341 341 341 342 342 342 341 340 342 340 337 334 332 331 330 331 332 333 336 339 341 343 345 345 346 347 348 347 346 345 346 348 349 350 350 347 342
340 339 340 341 341 341 341 342 343 343 344 344 344 345 346 346 345 345 345 346 345 345 345 345 346 346 345 344 343 344 345 344 344 344 345 346 347 348 346 343 345 344 341 339 339 340 341 340 340 342 342 342 343 343 342 342 342 338 333 331 330 330 330 330 331 332 335 340 343 345 346 347 347 347 346 345 344 346 348 349 349 346 341 335 330
341 340 340 340 340 340 339 340 341 342 343 344 343 343 344 346 346 345 346 346 346 345 346 346 345 346 346 345 345 346 346 344 344 345 345 346 346 346 345 346 347 347 345 342 340 341 340 339 341 341 341 342 342 342 342 341 338 334 331 330 330 330 330 330 330 332 335 340 344 345 345 345 345 345 343 344 346 348 348 345 341 336 331 328 326
343 341 340 340 339 339 338 338 339 340 341 341 342 342 342 344 345 345 345 346 346 346 347 346 345 345 345 345 346 347 347 346 345 344 343 343 343 344 346 347 347 348 348 346 344 343 340 338 340 339 339 340 341 341 341 338 335 332 332 331 330 330 329 330 330 332 335 340 343 345 344 344 343 342 343 346 348 346 342 338 333 330 327 326 326
343 342 341 340 340 339 338 338 337 338 339 339 340 340 341 342 343 344 345 345 345 345 346 346 346 345 345 346 346 346 347 348 348 347 344 342 342 344 346 347 347 348 350 350 347 344 340 338 338 337 336 336 337 337 337 335 334 333 332 332 331 330 329 330 330 331 334 339 342 343 343 343 342 343 346 348 348 343 339 335 331 327 325 325 326
341 342 341 341 341 340 339 338 337 337 338 339 338 339 340 340 340 341 342 343 344 344 345 346 346 345 346 346 346 346 346 348 350 350 347 344 343 344 345 347 347 346 348 349 348 344 339 338 339 337 334 333 334 334 335 335 335 334 333 332 331 329 328 329 329 330 333 337 340 341 342 343 344 346 348 348 346 342 340 337 333 328 324 324 326
337 339 341 341 341 340 339 338 337 337 338 339 339 339 339 339 339 339 340 341 342 343 344 344 345 344 345 345 345 346 347 348 349 350 349 346 344 344 345 346 346 346 346 347 349 346 340 339 340 339 337 336 336 336 337 338 337 334 333 332 330 328 327 328 328 330 332 335 337 339 342 345 346 347 349 348 345 343 343 342 339 333 326 323 325
333 335 337 338 339 340 340 339 337 336 337 338 338 339 339 339 339 338 339 339 340 341 341 342 342 342 343 342 343 343 344 346 348 349 349 347 345 345 345 345 346 346 346 346 348 345 340 339 339 340 340 339 338 338 339 339 336 333 332 331 329 327 327 328 329 330 332 334 336 339 343 346 347 348 348 347 345 344 345 345 345 340 328 323 324
332 333 333 334 336 338 339 339 338 336 337 338 338 339 339 338 338 338 337 338 338 338 339 339 339 340 340 340 339 340 340 341 343 346 348 349 348 347 346 346 346 347 346 347 347 345 341 339 337 338 338 338 339 339 339 338 335 332 331 330 328 327 326 328 330 332 333 335 337 340 344 346 346 348 348 347 345 345 345 346 347 342 329 323 324
332 332 332 333 334 335 337 338 339 338 337 338 338 338 338 338 337 337 337 337 337 337 337 337 337 337 338 338 338 338 338 339 339 341 343 346 348 349 348 347 347 347 347 348 348 345 342 339 336 336 337 337 337 337 336 335 334 332 330 329 328 327 326 327 330 333 333 335 337 341 344 346 346 347 348 347 346 345 345 346 347 340 328 322 322
331 331 331 332 333 334 335 336 337 338 338 338 339 338 337 336 335 336 336 336 336 336 336 336 336 336 336 336 337 337 337 338 338 338 339 341 344 346 348 348 348 348 348 348 348 346 342 339 338 337 337 336 335 334 334 333 333 332 330 329 327 327 327 327 330 333 335 336 339 343 345 346 346 347 348 348 346 346 346 347 345 337 326 322 321
330 330 330 331 332 333 334 334 334 335 336 338 338 335 333 332 332 334 336 337 337 336 336 336 337 337 337 336 336 336 336 337 337 337 337 337 339 341 343 346 347 347 348 348 347 346 343 340 338 338 337 335 334 334 333 333 332 331 330 330 328 327 327 327 328 331 335 338 341 345 346 346 346 347 347 348 347 347 347 346 341 332 324 321 321
331 330 330 330 330 331 332 332 331 333 335 337 336 332 328 327 328 329 331 333 334 334 334 334 334 335 336 336 335 335 335 335 336 336 337 337 337 337 338 339 340 342 344 344 343 342 340 338 338 337 336 334 333 334 334 333 332 330 329 330 329 329 328 327 329 332 336 339 342 345 347 346 346 346 346 348 348 347 348 344 336 328 323 321 321
331 331 330 329 329 328 329 329 329 330 333 334 333 330 327 326 326 326 326 327 327 328 329 329 330 331 332 333 333 333 333 334 334 334 335 336 336 336 336 337 338 338 339 339 339 338 338 336 336 335 335 334 334 334 334 334 332 331 330 330 330 330 329 328 330 334 339 343 345 346 347 346 345 346 346 347 348 348 348 342 332 325 323 321 320
332 331 331 330 329 328 327 327 327 328 328 330 329 328 327 327 326 326 325 326 325 326 326 326 327 328 329 330 331 331 331 331 332 332 333 334 334 335 335 336 336 337 337 337 337 337 336 335 335 334 334 334 334 334 335 334 333 332 332 332 331 330 329 328 329 332 339 345 348 347 347 346 346 346 345 346 347 348 348 342 331 324 322 321 321
338 334 331 330 329 329 328 327 327 327 327 327 327 327 326 326 326 326 325 326 326 326 326 326 326 326 327 328 328 329 329 329 330 331 332 332 332 333 333 334 335 335 335 335 335 335 335 334 334 334 333 333 334 334 334 334 333 334 335 336 334 333 330 328 329 332 335 343 349 350 349 347 347 346 345 346 347 348 348 343 333 325 322 322 321
345 341 337 333 330 329 328 328 328 327 327 327 326 326 326 326 326 326 326 326 326 326 326 326 326 325 325 325 325 326 327 327 328 330 330 331 332 332 332 332 333 333 333 333 333 332 332 332 332 332 331 332 331 331 331 332 333 335 338 339 339 338 334 329 328 331 334 338 345 350 349 348 348 347 346 346 346 347 347 344 335 326 322 322 322
348 347 345 342 338 333 330 328 328 328 327 327 327 327 327 327 326 326 326 326 326 326 326 326 325 325 324 324 324 324 325 326 327 328 330 331 331 331 331 331 331 332 332 332 332 331 330 330 329 329 329 329 330 329 329 330 332 335 340 342 343 342 340 335 331 330 332 336 340 346 349 348 348 349 348 346 346 346 346 345 338 328 323 322 322
349 349 349 347 345 342 337 331 329 328 327 327 326 326 326 326 326 326 326 326 326 326 325 325 325 325 324 324 323 323 324 325 325 327 329 331 331 331 331 331 331 331 331 331 331 330 330 329 328 328 328 328 328 329 329 332 335 338 342 344 344 344 343 341 337 333 333 335 337 342 347 347 345 349 349 347 347 346 345 345 340 330 323 322 322
350 350 350 350 349 347 344 338 334 331 328 327 326 326 325 325 325 325 325 325 325 325 325 324 324 324 324 323 323 323 323 324 324 326 327 330 331 331 332 332 332 332 331 331 331 330 330 329 329 328 327 327 328 328 329 334 339 341 343 344 345 344 344 342 341 339 337 336 336 340 345 346 344 347 349 347 347 347 345 345 342 332 324 322 322
350 351 351 351 351 350 348 345 341 337 333 331 329 329 328 327 327 326 326 326 326 326 325 325 325 325 325 324 324 324 323 324 324 325 326 328 330 332 333 333 332 332 331 332 332 331 331 331 330 329 327 327 328 327 329 334 339 341 342 344 345 344 344 342 342 343 340 338 338 340 345 347 346 346 348 347 347 347 346 346 343 334 325 322 322
351 351 352 352 352 352 351 350 348 346 342 337 335 334 333 332 332 331 331 331 330 329 329 328 328 327 327 326 326 325 324 324 324 324 326 327 330 332 334 334 333 332 332 332 332 332 332 332 331 329 328 328 328 327 329 332 336 338 341 344 345 344 344 343 342 343 342 340 341 340 343 347 347 346 346 346 347 347 346 345 344 336 327 322 322
351 352 352 352 352 352 353 352 352 351 349 346 343 341 339 338 337 337 337 336 336 335 333 332 331 330 329 329 328 327 326 325 325 325 326 327 329 332 334 335 335 333 332 331 331 332 332 332 332 331 330 330 330 330 331 332 334 337 340 343 344 344 345 343 340 341 341 340 340 339 340 345 346 345 344 345 346 347 346 345 344 337 327 323 322
351 352 352 352 353 353 353 353 353 353 353 352 351 349 347 345 345 344 343 341 341 339 337 335 334 332 332 331 329 328 327 326 325 325 327 328 330 332 335 336 337 335 333 331 330 331 331 331 332 331 331 332 332 332 333 335 336 337 339 341 341 341 342 342 339 339 340 340 341 339 338 342 344 344 344 344 346 347 346 345 344 336 327 324 323
351 352 353 353 353 353 353 353 353 353 354 354 354 353 353 352 351 350 349 347 345 343 339 337 336 334 333 332 330 329 328 327 326 326 327 329 331 332 335 337 339 338 334 332 331 331 330 330 330 330 330 331 331 332 334 335 336 338 339 340 338 338 339 340 339 338 338 343 346 343 338 340 343 343 345 346 346 347 346 345 343 336 327 324 323
352 353 353 354 354 354 354 354 354 354 355 355 355 355 355 355 355 353 352 351 349 346 342 338 337 335 334 332 331 331 329 328 327 327 329 331 332 333 335 337 340 339 334 333 334 332 330 329 330 330 330 329 330 331 333 335 337 339 340 340 341 341 342 341 340 340 341 345 348 345 341 342 343 344 346 348 347 346 346 345 342 334 326 323 322
352 353 353 353 354 354 354 355 355 355 355 355 356 356 356 357 356 355 355 354 352 348 343 339 337 335 334 332 332 332 330 329 329 329 330 332 333 334 335 339 342 339 334 334 335 334 332 331 330 330 330 329 329 330 331 333 336 339 341 343 345 346 345 343 342 344 347 349 348 345 343 344 346 346 347 349 349 347 345 345 342 333 326 323 322
Wind_Speed
9 9 10 11 12 13 13 13 13 12 12 11 11 11 12 13 13 13 13 12 11 11 10 10 11 11 10 10 10 10 10 10 10 10 11 10 9 8 7 7 8 8 7 7 6 5 5 4 4 4 4 4 4 5 5 5 6 7 7 8 8 8 8 8 8 9 10 9 9 8 8 8 8 8 9 9 9 9 9 9 10 10 10 11 11
10 10 10 11 12 12 11 11 11 11 11 10 10 11 12 13 14 13 13 12 11 10 10 10 10 10 10 10 10 10 9 9 9 10 10 10 9 8 7 7 7 7 7 6 6 6 5 5 4 4 4 4 4 5 5 6 7 7 7 7 7 8 8 8 8 9 9 8 8 7 8 8 8 8 9 9 9 9 9 9 9 10 10 10 10
10 10 10 10 11 11 10 10 10 10 10 10 10 10 11 12 12 12 12 12 11 10 9 9 9 9 9 9 9 9 8 8 8 9 9 9 8 8 7 6 6 6 6 5 6 5 5 5 4 4 4 4 4 5 5 6 7 7 7 6 7 8 8 7 8 8 7 7 7 7 7 8 8 9 9 9 9 9 8 8 9 9 10 10 10
11 11 10 10 10 10 10 9 10 10 9 9 8 9 9 10 10 10 10 10 10 10 9 8 8 9 9 9 9 8 8 7 7 7 8 8 8 7 6 6 5 5 5 5 5 4 4 4 4 4 4 4 5 5 5 5 6 6 6 6 7 7 7 7 7 7 6 7 7 7 7 8 9 9 9 9 9 8 8 8 9 9 10 10 10
10 10 10 9 9 9 8 9 9 9 8 7 7 7 7 8 8 8 8 9 9 9 9 8 7 7 8 8 8 8 8 8 8 8 8 7 7 7 7 6 6 5 5 4 4 4 3 3 3 4 4 4 5 5 5 5 4 5 6 6 6 6 6 6 6 6 6 7 7 8 9 9 9 10 9 9 8 8 8 8 8 9 9 9 10
9 9 9 8 7 7 7 7 7 7 5 5 5 5 5 5 5 6 7 8 8 8 8 7 7 7 7 7 7 8 9 9 9 9 10 9 8 8 7 7 6 6 6 5 4 4 4 4 4 4 4 4 4 4 4 4 4 5 5 5 5 5 5 5 5 6 7 8 9 9 10 9 9 9 8 8 8 8 8 8 8 9 9 9 9
8 8 7 7 6 6 6 6 6 5 4 4 4 4 3 3 3 4 5 7 8 8 7 6 6 7 7 7 8 8 9 9 10 10 11 11 10 9 7 7 6 6 6 5 4 4 5 5 6 6 5 5 5 4 4 5 5 5 5 5 5 6 6 6 7 8 8 9 9 8 8 8 8 8 8 8 8 8 8 8 9 9 9 9 9
8 7 7 6 6 5 5 5 5 4 4 3 3 3 2 2 3 3 4 6 8 8 7 6 6 7 7 7 7 8 8 8 8 9 10 11 11 10 8 7 6 6 6 6 5 4 4 5 6 6 5 5 5 5 5 5 5 6 6 7 7 7 8 8 8 8 8 8 7 7 7 7 7 8 8 8 8 9 9 9 10 10 10 10 10
7 7 7 6 6 5 5 4 4 3 3 3 3 2 2 2 2 3 3 5 7 7 6 7 7 6 7 7 7 6 6 6 7 7 8 8 9 10 9 8 8 7 7 7 7 5 4 4 5 5 5 5 5 5 5 5 6 7 7 8 8 8 8 9 8 8 7 7 6 7 7 7 7 8 8 8 9 9 10 10 10 10 10 10 10
6 6 6 6 6 5 4 4 4 3 2 3 3 2 2 2 3 3 2 3 5 6 5 5 6 6 6 6 6 5 4 4 5 6 7 7 8 8 8 8 8 8 8 8 8 8 6 5 5 6 6 6 6 6 6 6 7 8 8 9 9 9 9 8 8 7 7 6 7 7 7 7 7 8 8 9 9 10 10 10 11 11 11 11 11
6 6 6 6 5 5 4 4 3 3 3 3 3 3 3 3 4 4 3 1 2 3 3 3 4 5 5 4 4 2 2 3 3 5 6 6 7 8 8 8 7 7 7 8 8 9 8 8 7 7 7 7 7 6 6 7 8 9 9 9 9 8 8 7 7 6 6 6 7 7 7 8 8 8 9 9 9 10 10 11 11 11 12 12 12
6 6 6 6 5 4 4 4 3 3 3 3 3 4 5 5 5 5 4 3 1 1 1 1 2 4 4 3 1 1 0 1 2 4 5 6 7 8 8 8 7 6 6 6 7 8 9 9 9 8 8 7 7 7 7 8 8 9 8 8 8 7 7 7 6 6 6 7 7 7 8 8 9 9 9 10 10 10 11 11 12 12 12 13 13
6 6 6 5 4 4 3 3 3 3 4 4 3 4 5 5 5 5 6 5 3 3 3 3 3 4 4 5 3 0 1 0 2 3 5 6 7 7 8 8 7 7 7 7 7 7 7 8 8 8 8 7 7 7 7 8 8 8 7 7 7 7 7 7 6 7 7 7 8 8 8 9 9 10 10 10 10 11 11 11 12 12 13 13 13
7 6 5 5 5 4 4 4 4 4 4 4 3 3 4 5 5 5 5 5 4 3 3 3 4 3 4 5 4 2 0 1 3 4 5 6 7 8 8 8 8 8 8 7 7 7 7 7 8 8 8 7 7 7 7 7 7 7 7 7 7 7 7 7 7 7 8 8 8 8 9 9 9 10 10 11 11 11 11 12 12 12 13 13 14
7 6 6 6 6 5 5 4 4 4 3 3 2 1 3 3 5 5 4 4 3 2 2 2 2 2 3 5 4 3 2 3 4 4 5 7 8 9 9 9 8 7 7 7 7 7 7 7 7 8 8 8 7 7 7 7 7 7 7 7 7 7 8 8 8 8 8 8 9 9 9 9 10 10 11 11 12 12 12 12 12 13 13 13 14
7 7 6 6 6 5 4 4 4 4 3 2 1 1 2 3 3 4 3 2 2 3 1 1 2 2 3 4 5 5 3 4 4 4 6 7 9 10 10 8 8 7 7 7 7 7 7 7 7 7 7 8 8 7 7 7 7 7 7 7 7 7 8 8 8 8 9 9 9 9 10 10 10 11 11 11 11 12 12 13 13 13 13 13 14
8 7 7 6 5 5 4 4 4 4 3 2 2 2 2 3 3 3 3 3 3 4 3 1 1 2 4 4 5 4 4 5 4 4 6 7 9 10 10 8 7 6 6 6 6 6 6 6 6 6 7 7 7 7 7 7 7 7 7 7 7 8 8 8 8 9 9 9 10 10 10 10 11 11 11 11 12 12 12 13 13 14 14 14 14
8 8 7 6 5 5 5 5 4 4 4 3 2 2 1 2 3 4 4 4 5 5 4 3 3 2 3 3 3 4 6 7 5 4 5 6 9 10 10 10 8 5 5 5 5 5 5 5 5 5 6 6 6 7 7 7 7 7 7 7 7 7 7 8 8 9 9 9 10 10 10 10 11 11 11 11 12 12 13 14 14 14 14 14 15
9 8 8 7 6 6 6 5 5 4 4 3 3 2 2 2 2 3 4 4 5 5 5 5 5 5 4 2 1 3 6 7 6 6 5 6 8 8 9 11 9 7 5 5 5 5 5 5 5 5 5 5 6 6 6 6 7 7 6 6 6 6 7 7 8 9 9 9 9 10 10 10 11 11 12 12 13 13 14 15 15 15 16 16 17
9 8 8 7 7 7 7 6 5 4 3 3 3 2 2 2 2 2 3 3 4 4 5 6 6 5 4 3 2 2 4 5 6 6 6 6 7 7 8 9 9 9 7 6 6 6 5 5 5 5 5 5 5 5 6 6 6 6 5 5 6 6 7 8 9 10 10 11 11 12 12 12 13 13 13 14 14 15 16 16 17 18 19 19 20
9 8 8 8 8 8 7 6 6 5 4 3 3 3 2 2 2 2 2 3 3 3 4 5 5 4 4 3 2 3 3 5 5 6 6 6 6 7 8 7 8 9 8 7 7 7 7 6 6 5 5 5 5 5 5 5 4 4 4 5 7 8 10 11 12 13 13 14 14 15 15 15 15 15 16 16 16 17 18 19 20 21 22 23 23
9 9 8 8 8 8 7 7 6 6 5 4 3 3 3 2 2 2 2 2 2 2 3 3 3 3 3 3 3 3 3 3 4 5 6 6 6 6 7 7 8 8 8 7 7 8 7 6 6 5 5 5 4 4 4 3 4 5 7 8 10 12 13 15 16 16 15 15 15 15 16 16 17 17 17 17 18 19 20 21 23 24 24 25 25
10 9 9 9 9 8 7 7 7 7 6 4 4 3 3 3 3 2 2 2 2 2 2 2 3 3 4 4 4 4 3 3 3 3 4 6 6 5 6 8 8 8 8 7 7 8 7 6 5 4 4 5 4 4 4 5 7 9 10 12 13 15 16 17 17 16 16 15 16 16 16 17 18 18 18 18 19 20 22 23 24 25 25 26 27
11 11 11 10 10 9 8 8 8 7 6 5 4 4 4 4 3 3 2 2 1 1 1 2 3 3 4 5 5 5 5 4 4 4 4 5 6 6 6 8 8 8 8 7 6 6 6 6 5 4 4 5 5 5 6 7 9 11 13 14 15 16 17 18 18 17 17 17 16 16 17 17 18 18 18 19 20 22 24 24 25 25 26 27 27
13 12 11 11 10 9 8 8 8 7 7 6 6 6 6 5 4 4 3 3 2 2 1 2 2 3 4 5 6 6 6 6 6 6 5 5 6 6 6 8 8 7 8 7 6 5 5 5 5 4 4 4 5 6 6 8 10 13 15 16 16 17 17 19 19 19 19 18 17 17 17 17 17 18 18 20 23 24 25 25 25 25 26 26 26
13 12 11 11 11 10 9 8 8 8 8 7 7 7 7 6 5 5 4 4 3 2 1 2 2 3 3 4 5 6 7 7 7 7 6 5 5 6 7 8 7 7 8 8 6 5 5 5 5 4 5 5 6 6 7 9 12 15 16 17 17 17 19 20 20 20 20 19 18 18 18 17 18 19 21 23 25 25 25 25 24 24 24 24 24
14 12 11 11 11 10 10 9 9 9 9 8 8 8 8 8 7 6 5 5 4 3 2 2 2 3 4 4 5 5 6 7 7 6 6 5 5 6 7 8 7 6 7 7 6 5 5 5 5 5 6 6 7 7 8 11 14 16 17 18 17 18 20 20 21 21 21 20 19 18 19 19 19 21 23 24 25 24 23 22 22 23 23 23 23
15 14 13 12 12 11 11 10 10 10 10 10 9 8 9 9 9 8 7 6 5 4 3 3 3 3 4 5 5 6 6 6 5 6 6 7 6 5 6 7 8 7 7 7 6 6 5 5 5 6 7 7 8 9 11 13 14 16 18 17 17 18 19 20 21 22 21 20 19 19 20 20 21 23 23 23 22 21 21 21 22 24 24 24 24
16 15 15 13 13 12 12 11 11 11 10 11 11 10 9 9 9 9 8 8 7 6 5 4 4 4 4 5 5 6 6 6 6 6 7 7 7 6 5 6 7 7 8 8 8 7 7 6 5 6 7 8 9 10 12 13 14 16 17 16 15 17 19 20 21 22 21 20 20 20 21 21 22 22 21 20 19 19 21 23 25 26 26 25 23
17 16 16 15 14 14 13 12 12 11 11 11 11 11 11 10 9 9 8 9 8 7 6 5 4 4 4 4 5 5 6 6 7 8 7 7 7 7 6 6 7 8 8 10 10 8 7 7 6 6 8 8 9 10 11 12 14 16 16 14 14 16 18 20 21 21 21 21 21 21 21 21 20 20 19 18 18 19 22 25 26 26 26 25 22
18 17 16 16 15 15 14 14 13 13 12 12 12 12 12 11 10 9 8 8 9 8 7 6 5 5 4 4 5 5 6 7 8 9 8 8 8 8 8 8 8 9 9 10 11 9 8 7 6 6 7 8 8 9 9 11 13 14 14 14 14 16 18 20 21 21 21 21 21 22 21 20 19 19 17 16 17 21 24 26 27 27 27 25 22
20 19 18 18 17 16 16 15 15 14 13 13 13 13 13 12 11 10 9 9 9 9 8 8 7 7 6 6 6 6 7 7 8 9 10 10 10 10 10 10 11 11 10 10 12 12 10 7 6 6 7 8 8 8 9 10 11 12 12 13 14 16 17 19 21 21 22 22 22 22 20 18 18 19 16 16 18 21 24 26 28 28 27 25 22
21 20 19 19 18 17 17 17 16 16 15 14 14 14 14 13 12 11 10 10 10 9 9 9 9 9 8 8 7 7 8 8 9 10 10 11 11 11 11 12 11 11 11 11 12 14 11 7 6 7 7 8 8 9 10 10 10 10 10 11 14 16 17 19 20 21 23 23 22 21 19 17 18 19 17 17 19 21 23 26 28 28 27 24 21
22 22 20 20 19 18 18 19 18 17 17 16 16 16 16 15 14 13 12 11 11 10 10 10 9 10 10 10 9 9 9 9 9 10 11 11 11 11 11 11 10 10 10 11 12 13 13 10 8 8 8 9 9 9 10 10 10 9 9 10 13 15 17 18 19 21 23 23 22 21 18 17 18 19 18 18 19 20 23 25 27 27 25 21 19
23 22 21 21 20 19 19 20 20 19 19 18 17 17 17 16 15 14 13 12 12 11 11 10 10 10 10 10 10 9 10 10 10 10 10 11 12 12 12 11 11 10 10 12 12 13 14 13 11 10 10 10 10 10 11 10 10 9 9 10 12 15 16 17 18 20 22 23 22 20 18 17 18 19 18 18 19 20 22 25 26 25 22 19 18
24 23 22 22 21 19 19 20 21 21 21 20 19 18 17 16 15 14 13 13 13 12 12 11 11 11 11 11 10 10 10 11 11 11 11 11 11 12 13 13 12 12 11 12 13 14 15 15 14 12 12 12 11 11 11 10 10 9 9 10 12 13 15 17 18 19 21 22 21 19 17 17 18 19 18 18 19 20 22 24 24 22 19 17 17
27 25 23 23 22 21 21 21 22 22 22 22 21 19 18 16 15 14 14 14 14 14 14 13 13 13 12 12 11 10 11 11 11 11 11 12 12 12 13 13 13 13 13 14 14 14 15 16 16 15 14 13 13 12 11 11 10 10 10 10 11 13 14 16 17 18 19 20 21 20 18 18 19 19 19 19 19 21 23 24 23 20 17 16 16
29 28 26 25 24 23 22 22 22 22 22 22 22 20 19 18 17 16 16 15 15 15 15 15 14 14 14 14 13 13 13 13 12 12 12 12 13 13 13 13 13 13 14 14 14 14 15 16 17 17 16 15 14 13 12 11 12 12 11 11 11 13 14 15 15 16 16 17 19 19 18 18 19 20 19 19 20 21 23 24 23 20 16 15 16
30 30 29 28 27 25 25 24 24 23 23 23 23 22 21 20 19 19 18 18 17 17 16 16 16 16 15 15 15 14 15 14 14 14 14 14 14 14 14 14 14 14 14 14 14 15 16 17 18 19 19 18 17 15 14 13 13 13 12 11 12 14 15 16 16 16 15 15 17 18 18 18 19 19 19 20 21 22 23 24 23 20 17 15 16
30 31 31 31 29 28 28 27 27 26 25 25 25 24 23 23 22 21 21 20 19 19 19 18 18 18 17 17 16 16 16 15 15 15 16 16 16 16 15 15 15 15 15 15 16 16 17 18 19 19 20 20 19 17 16 15 15 14 13 12 12 13 15 15 15 15 15 15 15 16 18 19 19 20 20 20 21 22 23 24 24 22 18 16 16
29 30 31 32 32 31 31 30 29 29 29 28 28 27 26 25 24 24 23 23 22 22 21 21 21 20 19 19 19 18 17 16 16 16 17 17 17 18 17 17 17 17 17 17 18 18 19 19 20 20 20 20 20 18 17 17 16 15 14 13 12 13 15 15 14 14 15 15 15 16 18 20 20 20 20 20 21 22 23 24 25 23 20 17 17
29 30 31 32 33 33 33 33 32 32 32 31 30 29 28 28 27 26 26 26 25 24 24 24 24 23 22 22 21 21 20 18 17 17 17 18 18 19 19 19 19 19 20 20 20 20 20 21 21 21 21 21 21 19 19 18 17 15 14 14 14 14 15 16 16 14 14 15 16 17 18 20 19 19 20 20 20 21 22 23 24 23 21 18 18
28 29 29 31 32 33 34 34 35 35 35 33 32 31 30 30 29 29 29 28 28 27 27 27 26 26 25 24 23 23 22 21 20 19 18 19 19 20 20 20 21 21 22 22 22 22 22 23 23 22 22 22 22 20 19 19 17 15 14 15 15 15 16 17 17 17 15 16 17 18 18 20 21 19 19 19 19 20 21 22 23 23 21 19 18
29 29 29 29 30 32 33 35 35 36 36 35 33 32 31 31 30 30 30 30 29 29 29 28 28 28 27 27 26 25 24 23 22 21 20 20 20 20 21 21 22 23 23 23 24 23 24 24 24 24 24 24 23 22 19 17 16 16 16 17 16 16 17 18 18 18 18 17 19 19 18 20 21 19 19 19 19 19 20 21 22 22 21 19 19
30 29 28 29 29 29 31 33 34 36 36 35 34 33 33 32 31 31 32 32 31 31 30 30 29 29 29 28 28 27 26 25 24 23 22 21 21 21 21 22 23 24 25 25 25 24 24 25 26 26 25 23 23 22 19 16 16 17 19 19 18 18 18 19 19 20 20 19 20 20 18 18 20 20 20 19 19 19 19 20 22 22 21 20 19
31 29 29 29 29 29 29 30 31 32 34 35 34 34 33 33 32 32 33 33 33 33 32 32 31 31 31 31 30 29 28 27 26 25 24 23 22 22 22 23 24 25 26 26 26 26 26 26 27 27 25 23 23 22 19 18 18 19 20 21 21 20 19 20 21 21 22 20 19 20 19 18 19 20 20 20 19 19 20 20 22 22 21 19 20
32 29 29 30 30 29 28 29 29 29 30 32 32 33 33 33 33 33 33 34 34 34 34 33 33 33 32 32 32 31 30 29 28 26 25 24 23 23 23 24 25 26 27 28 28 27 27 27 27 27 26 25 24 22 21 20 20 21 22 23 23 22 21 22 23 23 23 21 19 20 20 18 19 20 21 21 19 18 19 20 22 22 20 19 20
34 32 31 31 30 29 28 29 30 29 29 29 29 30 31 31 31 32 33 34 34 35 35 35 34 34 33 33 33 32 32 31 29 27 27 25 24 24 24 24 25 26 28 30 29 28 28 28 28 28 27 26 25 23 22 22 22 22 23 24 24 24 23 23 24 24 24 22 19 20 20 20 20 21 21 20 19 18 19 20 21 21 20 18 19
36 33 31 30 29 29 29 29 29 29 28 27 27 28 28 28 29 30 32 34 34 35 35 35 35 34 34 34 33 33 33 32 30 29 27 26 25 25 25 25 25 26 29 30 30 30 30 30 30 30 29 28 27 25 23 23 23 22 23 23 24 23 22 23 23 24 23 19 16 17 20 20 20 20 20 20 17 17 18 20 20 19 18 18 18
36 34 31 30 29 29 29 29 28 28 27 27 26 26 26 26 27 29 31 32 33 34 35 35 35 35 34 34 34 33 33 32 31 30 29 27 26 26 26 25 25 27 29 30 29 29 30 31 31 31 31 29 28 26 25 23 23 22 22 22 21 19 20 21 21 21 20 17 15 16 18 19 18 18 18 18 17 16 17 18 18 18 17 17 18
38 35 34 33 31 29 28 28 28 28 28 27 26 26 25 25 26 27 28 29 32 34 35 35 35 35 35 35 34 34 34 32 31 31 30 29 28 27 26 25 26 29 30 29 28 28 29 31 31 31 30 30 29 28 26 25 23 23 22 20 18 17 18 18 18 18 17 16 16 17 17 16 16 16 16 16 16 16 17 17 17 16 16 17 18
Wind_Direction
135 136 134 131 128 124 115 108 108 109 107 105 102 97 91 88 84 81 78 77 77 79 82 83 84 83 82 81 80 78 77 77 76 76 75 73 70 65 61 64 71 73 73 75 75 76 73 68 64 65 65 59 54 51 44 36 30 28 28 27 26 26 27 26 23 20 15 8 3 7 17 21 28 34 37 39 42 47 51 48 45 44 43 43 41
136 136 135 132 129 125 117 111 113 116 114 111 106 99 92 89 85 81 77 74 74 77 81 81 81 82 83 82 81 79 78 78 77 77 76 74 72 66 59 61 70 73 75 74 70 67 62 59 59 57 54 50 45 41 36 29 23 23 24 23 21 19 18 20 18 14 8 1 4 14 22 29 35 40 43 46 48 51 52 47 41 39 39 39 37
136 133 132 132 130 126 123 122 123 123 119 114 107 98 93 89 86 82 77 74 71 72 78 81 80 82 86 86 85 84 82 80 77 75 74 73 72 71 65 61 64 67 69 68 65 60 52 48 47 46 40 35 32 29 26 21 19 20 23 19 14 10 8 11 13 10 3 1 11 23 32 40 44 46 48 48 50 50 47 41 37 35 34 34 33
137 133 133 133 133 132 131 133 132 128 121 113 106 99 94 91 89 84 78 73 68 67 72 80 84 84 88 90 89 88 87 83 77 72 70 69 69 72 72 66 61 59 58 56 56 53 50 45 39 35 30 26 24 24 20 16 14 12 13 8 4 8 7 7 9 4 0 11 25 34 42 45 45 45 44 45 45 43 39 34 32 31 29 28 27
140 136 136 137 139 141 141 139 134 129 121 113 109 107 102 99 96 86 78 71 65 62 62 72 85 89 89 89 89 88 85 81 74 68 64 63 64 68 73 71 64 60 58 55 52 49 49 46 41 35 26 21 19 21 21 14 5 0 1 358 355 1 1 357 3 8 19 34 40 42 43 41 40 39 36 36 34 33 31 28 27 26 24 22 19
147 143 140 141 144 148 148 141 136 132 123 114 115 115 113 114 106 91 81 73 65 59 58 68 84 94 94 91 89 86 82 77 72 68 63 61 61 63 67 70 69 68 64 59 56 53 51 45 42 36 24 18 18 18 14 10 6 359 358 353 354 3 6 13 27 37 44 47 45 43 40 36 34 31 28 26 23 23 22 19 20 17 16 13 10
154 152 145 143 145 154 156 146 143 142 139 133 136 140 141 144 134 106 86 76 69 63 62 72 88 99 100 99 96 89 82 77 72 69 65 62 60 61 63 64 66 67 62 53 50 53 55 50 44 39 33 28 27 23 16 16 20 16 9 10 22 35 41 47 50 50 49 47 44 41 36 31 26 21 17 15 12 11 9 8 7 5 4 1 359
156 157 153 148 152 161 162 155 153 155 158 162 166 170 171 170 162 136 102 83 73 67 66 70 84 99 103 104 102 94 85 77 70 65 61 57 58 60 59 56 53 51 47 42 43 51 56 53 46 41 39 39 37 35 32 33 35 35 36 39 45 51 53 54 52 50 47 43 39 33 28 22 16 11 6 3 2 1 359 359 358 356 355 353 352
156 158 158 156 159 166 173 175 172 172 176 178 182 187 188 186 180 167 130 95 77 70 69 68 71 86 99 107 108 100 87 72 62 54 47 45 48 51 50 46 42 41 41 41 45 53 56 54 51 49 49 50 50 52 55 55 54 52 53 53 53 54 54 52 48 45 40 34 29 23 19 14 9 6 2 0 360 358 357 356 355 353 351 350 349
162 164 165 168 170 178 189 194 196 200 205 201 200 209 222 225 213 204 168 103 81 70 72 68 60 66 88 107 112 103 84 62 53 44 35 33 37 40 38 35 34 36 40 42 46 51 53 53 55 56 56 57 58 60 62 61 62 60 58 56 55 54 52 50 45 39 33 27 23 19 16 13 10 7 5 3 0 358 356 354 352 351 349 347 346
167 171 174 178 180 185 190 195 204 210 216 217 215 222 227 228 223 219 215 147 73 60 68 69 46 45 63 98 123 107 77 61 45 37 28 24 32 35 32 29 28 33 36 41 46 49 51 53 55 57 57 59 60 60 61 61 62 60 57 54 52 50 48 44 39 33 27 22 18 15 13 11 9 8 5 3 360 357 354 351 348 347 345 344 342
170 175 178 182 183 183 185 188 196 194 194 202 210 220 221 220 223 222 226 236 262 351 15 25 9 8 21 40 93 152 122 73 30 26 24 22 28 31 33 33 31 35 40 41 47 50 54 57 57 58 58 58 59 58 58 58 58 56 52 49 45 42 38 34 29 24 20 17 14 11 8 7 6 5 2 0 358 355 352 348 346 343 341 340 339
174 179 179 182 183 184 185 179 181 180 179 183 192 207 210 211 219 224 230 238 252 278 298 318 326 332 350 3 13 264 221 172 26 25 28 26 29 32 35 37 38 42 45 46 50 53 58 59 57 56 54 53 52 53 54 54 54 51 47 42 37 32 29 26 22 18 16 13 11 8 5 4 2 2 360 358 355 352 349 346 342 340 338 336 335
175 179 179 181 183 191 196 180 172 176 179 178 178 193 200 204 214 223 231 236 251 270 281 304 319 323 339 357 19 62 70 38 32 27 33 34 35 35 34 35 38 40 41 41 42 47 54 55 55 54 51 48 46 47 48 49 48 45 41 36 31 28 24 22 18 15 12 9 7 4 2 1 0 0 358 355 352 349 346 342 339 336 334 333 332
176 179 182 184 188 196 198 184 174 179 183 177 170 187 193 201 211 217 218 229 246 246 266 326 348 9 3 5 30 61 72 46 35 34 44 45 39 33 31 33 34 35 34 32 30 33 42 49 54 54 51 50 49 49 48 48 45 40 37 32 27 25 21 19 16 12 10 7 5 2 360 359 358 358 356 353 349 346 344 341 339 337 334 333 331
177 182 187 186 190 198 198 188 181 183 182 170 163 190 191 198 206 209 200 196 210 199 197 11 55 65 24 18 36 60 66 30 32 54 51 46 40 32 28 30 35 40 36 28 24 28 37 45 51 52 52 54 54 55 53 49 45 38 35 31 27 24 21 18 14 12 9 7 5 2 359 357 355 354 352 348 346 344 342 340 338 336 334 331 329
181 186 190 186 188 200 201 194 190 187 183 183 198 196 196 206 204 207 203 192 194 193 192 197 121 41 19 30 48 59 37 14 33 61 45 39 34 32 33 33 38 46 46 36 29 31 40 46 50 51 51 54 55 57 55 51 45 40 35 32 30 26 22 18 14 11 8 5 3 360 357 354 352 351 348 345 342 339 336 334 332 329 327 324 321
187 190 191 190 194 205 204 197 196 193 189 191 203 201 199 212 210 213 215 208 203 200 208 224 239 297 347 15 40 35 14 12 25 26 33 45 37 33 37 37 41 49 51 49 40 37 41 45 50 50 50 53 54 56 54 51 47 45 41 37 34 29 22 18 12 7 3 359 356 352 349 347 345 343 341 337 334 330 327 324 322 319 316 313 310
191 193 194 196 202 209 206 201 202 201 197 189 191 201 208 206 208 217 222 219 212 210 220 237 254 275 304 314 333 12 12 11 10 3 11 31 34 36 34 35 44 48 44 45 38 37 39 42 48 49 51 54 55 55 53 52 52 51 48 40 33 23 13 6 360 355 350 344 340 336 334 333 332 330 328 325 323 320 317 314 312 310 308 307 306
194 195 197 202 209 212 209 206 210 211 207 193 188 199 212 207 202 214 225 225 223 224 230 243 256 266 281 283 278 326 1 5 4 8 5 360 15 28 29 36 43 39 41 43 36 38 42 43 48 49 55 58 59 63 61 61 60 54 44 29 15 3 353 346 341 336 330 325 323 320 320 319 318 317 316 315 313 312 310 309 310 310 311 312 312
196 197 201 205 210 214 213 209 213 218 211 199 198 197 202 206 201 212 227 228 232 237 241 250 254 254 261 256 257 290 336 357 1 13 12 360 3 8 12 27 30 28 39 42 35 39 45 48 51 53 58 62 67 69 68 66 57 39 19 3 354 347 342 340 336 332 327 323 321 320 318 316 314 313 312 311 311 312 313 314 316 317 318 319 318
202 201 204 208 209 211 213 211 213 218 210 198 196 186 188 198 190 195 220 231 240 245 245 250 250 245 249 248 254 271 300 346 359 8 6 359 355 352 359 5 3 11 25 30 31 32 36 44 49 51 50 49 50 50 45 35 13 357 351 346 344 342 342 342 341 337 333 328 325 322 320 318 317 316 316 317 318 320 322 322 323 323 323 322 321
209 209 208 209 210 209 210 211 212 215 212 208 201 185 184 191 185 180 196 217 231 244 244 246 249 248 248 251 254 257 267 304 335 345 352 353 347 342 346 344 342 350 1 12 21 23 29 36 37 40 35 23 12 1 351 346 343 342 342 341 340 341 341 342 341 338 333 329 325 322 322 322 321 322 323 324 325 326 326 325 325 325 325 324 324
212 214 211 209 212 212 212 213 214 217 217 220 215 198 192 193 194 192 199 218 230 239 243 245 250 248 245 246 245 246 253 271 300 315 325 334 334 336 335 332 334 339 344 356 7 15 27 28 23 26 23 11 353 336 331 335 339 340 341 340 340 341 342 343 342 340 336 332 328 327 327 328 327 327 327 327 327 327 326 325 325 326 327 327 328
218 219 215 212 214 216 218 220 219 221 223 224 221 210 203 206 210 210 209 218 232 231 224 239 251 247 245 244 241 243 251 263 282 296 302 311 323 334 334 330 332 331 335 344 352 6 17 13 14 14 7 359 342 332 331 336 340 342 344 344 342 343 345 346 345 343 341 337 335 334 334 333 331 329 327 327 327 326 325 326 327 329 331 332 334
224 223 221 219 218 218 220 224 222 222 224 225 223 217 216 221 222 218 216 222 231 225 213 232 249 253 250 245 242 245 253 264 276 282 284 297 317 332 335 335 334 329 333 337 343 4 10 2 1 355 345 342 340 337 331 334 340 343 347 347 344 345 349 349 346 344 342 340 338 339 337 334 330 326 326 327 327 328 329 331 333 335 338 341 344
227 226 224 224 224 222 220 222 223 225 227 227 225 224 226 230 231 228 225 230 234 231 235 242 249 256 253 246 244 249 257 267 272 271 268 273 296 320 335 341 338 333 337 341 348 4 5 1 354 338 331 333 335 333 328 335 342 345 348 348 345 347 349 347 345 344 342 340 338 337 335 330 327 327 328 329 331 334 337 340 342 344 348 350 351
229 228 227 227 229 228 225 224 225 227 230 230 230 232 230 231 235 237 238 242 244 243 250 256 255 259 258 253 250 249 255 267 272 267 261 262 275 300 328 342 342 337 339 346 357 5 4 7 357 331 327 332 333 330 330 337 342 344 346 345 343 345 346 345 344 344 341 338 334 332 330 329 329 330 331 334 338 343 346 349 351 352 353 353 353
229 228 228 229 232 233 231 230 228 228 230 231 231 233 233 233 236 239 242 244 247 249 254 257 255 256 261 263 261 256 254 263 271 270 264 261 262 276 306 330 336 335 337 337 341 351 356 0 353 331 329 335 335 331 332 336 339 341 340 339 341 344 344 343 343 342 339 335 331 328 329 331 334 335 336 341 346 349 353 357 357 355 352 351 352
228 228 229 232 235 236 236 235 233 230 230 232 232 233 234 236 237 237 238 241 245 249 252 254 251 251 258 264 267 265 261 262 264 265 266 263 257 260 279 301 314 320 323 323 325 334 346 349 344 332 330 336 337 334 333 334 335 336 335 336 341 343 342 340 340 339 336 333 331 330 332 335 338 341 344 349 353 355 359 360 358 354 349 348 351
227 227 228 231 236 239 238 238 237 233 233 235 235 236 236 237 239 238 235 236 240 244 247 251 249 246 250 258 265 266 264 262 261 263 265 264 258 257 266 280 294 302 308 314 314 316 329 339 338 332 330 333 335 332 331 330 331 331 330 333 338 341 340 338 337 337 333 332 332 333 335 338 343 347 350 357 359 0 1 358 355 352 349 347 350
229 229 230 232 235 238 240 241 239 236 235 236 237 239 240 239 241 242 238 234 235 238 242 247 249 250 251 255 260 263 265 264 261 262 263 264 263 262 265 273 282 289 295 303 306 307 313 321 323 326 326 325 325 322 320 323 326 327 326 328 333 338 340 337 336 336 333 331 333 335 335 340 347 349 353 2 4 2 0 356 353 351 348 347 350
231 231 231 233 234 235 237 238 238 237 234 235 238 240 242 243 243 245 244 239 236 235 239 245 250 255 258 259 259 261 265 266 264 262 261 263 266 267 269 273 276 280 285 293 300 304 306 304 307 315 317 318 319 315 313 318 324 325 322 324 330 335 338 338 336 335 332 331 333 333 333 339 348 349 353 1 3 0 357 354 352 350 346 347 351
233 232 232 233 234 234 235 235 235 235 234 233 236 239 242 245 246 247 247 246 244 242 243 247 251 255 258 260 260 260 261 263 264 263 261 261 263 266 270 272 273 274 279 287 293 298 301 302 305 311 314 317 320 317 315 318 324 327 324 324 329 333 336 336 335 333 330 329 330 330 330 338 348 350 352 357 359 357 354 353 352 349 345 346 350
234 233 232 232 233 234 235 235 234 234 234 232 233 237 242 245 248 249 248 248 248 248 250 251 252 255 258 258 260 260 260 261 262 264 264 263 262 264 268 270 273 275 277 283 287 292 296 299 302 308 312 315 319 320 318 319 324 328 328 326 328 331 333 333 333 332 329 327 328 328 329 337 347 351 351 353 354 352 352 353 352 348 345 345 347
236 234 233 233 234 233 234 234 233 233 233 231 231 234 238 242 246 249 249 248 248 250 252 253 254 256 259 259 261 263 263 262 262 263 266 268 268 268 268 269 272 274 275 280 284 287 292 295 298 302 306 309 313 317 317 315 316 320 324 326 326 327 328 330 331 331 329 326 326 328 330 336 344 349 350 349 349 348 350 353 353 349 345 343 345
238 236 234 233 233 232 232 231 231 231 230 229 230 232 236 239 243 248 251 252 253 254 255 254 254 256 258 260 262 264 266 266 265 265 266 268 271 271 271 271 272 272 272 274 278 282 286 291 294 297 300 303 306 310 312 310 305 305 310 318 322 322 325 328 329 330 329 326 324 327 330 334 340 346 348 346 346 347 348 351 353 351 346 343 344
239 239 237 234 232 230 229 229 228 229 228 229 230 232 235 238 241 246 251 253 256 258 259 258 256 254 255 257 260 262 265 268 269 269 268 267 268 269 271 271 271 271 271 272 274 277 281 285 289 292 294 297 299 301 302 301 299 299 301 308 315 317 321 327 330 330 329 323 320 323 327 331 336 341 344 343 343 345 346 349 352 352 346 342 343
240 240 240 238 234 231 230 229 228 228 228 229 232 234 237 239 241 245 248 252 255 258 261 263 262 259 256 254 256 258 261 264 267 270 270 268 267 267 268 269 269 269 271 273 274 275 278 281 284 287 290 291 293 295 296 296 294 294 297 303 309 311 316 324 329 328 326 323 320 320 323 327 331 336 341 341 341 342 342 344 349 351 346 340 339
241 242 242 241 239 236 234 232 231 231 230 231 233 235 237 240 243 245 247 250 254 258 261 264 266 266 263 258 256 256 258 260 262 265 267 267 267 266 265 266 266 268 269 271 273 273 275 277 280 282 286 287 289 291 293 293 291 291 296 303 307 308 309 315 324 324 322 322 320 317 318 322 327 332 337 338 338 337 337 340 345 348 345 338 336
242 242 242 243 243 241 239 236 235 234 234 234 235 235 237 240 242 245 248 249 252 256 259 262 265 266 265 263 260 257 257 257 257 257 258 260 263 264 265 266 265 266 267 269 271 272 273 275 277 280 282 284 286 289 291 290 287 287 292 300 308 311 308 308 314 318 318 317 316 312 313 317 323 327 331 334 334 333 333 336 341 345 343 336 335
244 244 243 243 243 243 242 241 239 238 238 237 237 237 238 241 243 246 248 250 252 254 257 260 262 263 264 263 262 259 257 256 255 253 253 254 255 258 261 264 264 265 267 268 270 271 273 274 276 278 279 280 283 287 291 291 285 282 288 297 304 308 308 306 307 311 314 314 313 311 309 311 316 321 324 327 329 329 330 332 336 340 339 335 334
247 246 246 245 244 244 243 243 242 242 241 240 240 240 241 242 244 247 249 250 252 254 256 258 260 261 262 262 262 260 257 256 255 255 254 253 253 253 255 257 260 262 264 266 268 270 272 274 276 277 278 279 282 285 289 290 285 280 286 294 299 302 303 303 304 308 312 312 311 309 305 305 310 316 318 320 324 325 326 328 331 335 336 332 332
248 248 249 248 247 245 245 245 244 244 244 243 242 243 243 244 246 248 250 252 253 254 255 257 258 260 261 261 261 260 258 256 257 258 257 255 253 253 254 255 256 257 259 262 265 268 270 273 275 276 278 281 284 284 285 285 281 278 283 291 297 298 297 298 301 305 308 310 310 309 304 302 306 310 312 315 321 322 322 324 327 330 331 329 329
249 249 250 250 249 248 247 246 246 246 247 246 245 244 245 246 247 250 252 253 254 255 256 256 257 258 259 260 260 260 258 256 256 258 259 257 256 255 255 255 255 255 256 258 261 263 266 269 270 272 276 280 282 282 280 276 274 277 283 290 295 295 294 295 299 301 304 306 307 306 303 300 303 307 308 311 318 320 319 320 322 325 327 326 327
250 249 249 250 250 249 249 249 249 249 248 248 247 246 246 246 247 249 251 253 254 255 255 255 256 257 258 259 259 259 258 257 255 256 258 258 257 256 255 255 255 255 255 256 257 259 261 264 267 270 273 275 277 279 276 271 270 274 280 286 290 291 293 294 295 296 299 302 301 301 301 298 300 305 306 309 315 317 316 317 319 322 325 324 325
251 250 249 250 251 250 250 250 250 250 249 249 249 248 247 247 247 248 250 251 253 254 254 253 254 255 256 257 258 258 257 257 255 255 257 258 258 257 256 255 255 255 255 255 255 257 258 261 263 267 270 271 273 275 274 272 270 272 276 280 283 286 289 291 292 294 297 299 296 295 296 296 296 300 302 305 310 312 312 314 316 320 323 322 323
254 252 251 251 251 251 250 251 251 251 249 249 249 248 248 247 247 248 249 249 250 251 251 251 251 252 253 254 256 256 256 256 255 255 257 258 257 256 256 255 256 256 255 255 255 255 257 259 261 263 265 268 270 271 270 270 270 271 273 275 277 282 285 287 289 291 296 299 294 291 295 294 293 296 296 298 304 306 307 311 313 317 320 320 321
254 254 252 251 251 251 251 251 251 251 250 249 248 248 248 247 247 248 248 248 248 248 248 248 248 248 249 250 252 253 254 254 254 254 256 256 256 256 255 255 256 256 255 256 256 255 255 257 259 261 263 265 267 268 266 266 267 269 270 272 276 280 282 282 285 288 293 293 286 288 295 294 291 293 292 292 297 300 302 307 311 314 317 317 319
255 255 255 254 253 253 253 253 252 252 252 251 250 250 249 248 248 248 249 249 249 247 246 246 246 245 245 246 247 249 251 252 253 254 254 254 253 253 254 255 257 256 256 256 258 258 256 256 257 259 261 264 266 267 266 264 263 263 265 269 273 276 276 278 281 285 287 284 278 285 294 293 291 291 288 287 294 297 298 302 308 311 313 314 314
258 256 255 256 256 255 255 255 256 256 255 254 253 251 249 248 248 248 249 250 249 247 245 244 244 244 243 244 244 245 248 250 251 252 252 252 251 251 252 255 256 257 257 258 260 260 259 258 257 257 259 262 264 264 264 261 259 258 260 263 267 268 271 275 277 278 279 278 279 288 294 291 288 287 284 285 291 295 296 298 303 308 309 308 309